Location: *
(43.4667°N, 11.6833°E)
Time: 22:44:18
(UTC+00:00)

Cosmos 1151 Rocket - Pass Details

Date: 19 July 2019
Orbit: 593 x 616 km, 82.5° (Epoch: 21 August)

Event Time Altitude Azimuth Distance (km) Brightness Sun altitude
Rises 19:26:22 0° 0° (N) 2,897 7.1 -6.4°
Reaches altitude 10° 19:28:48 10° 10° (N) 1,987 6.0 -6.8°
Maximum altitude 19:32:47 33° 75° (ENE) 1,045 3.9 -7.4°
Drops below altitude 10° 19:36:44 10° 140° (SE) 1,969 5.0 -7.9°
Enters shadow 19:36:51 - 141° (SE) 2,011 5.0 -8.0°
